RH
46 48 50 55 58 58 61 57 54 52 48 45 44 42 39 38 38 35 22 30 35 32 24 21 16 17 15 16 17 18 22 26 23 25 20 20 23 27 27 33 37 41 60 66 86
41 42 46 53 57 61 64 64 56 52 49 51 49 50 49 45 42 32 26 40 29 26 26 14 21 20 20 18 18 19 24 23 20 20 19 18 23 24 26 36 42 40 45 76 92
40 41 46 54 62 69 69 65 59 57 57 55 57 58 60 54 44 33 40 41 29 34 24 18 26 25 24 27 23 24 22 21 18 20 19 16 19 21 26 32 37 40 53 91 98
56 57 58 63 71 72 73 72 65 65 64 70 66 68 70 64 46 36 46 41 30 44 32 21 17 26 29 29 29 28 25 21 21 19 20 16 17 22 26 26 26 29 40 82 95
71 72 74 75 74 76 76 76 77 74 72 76 80 79 80 77 57 46 44 36 35 47 43 25 23 28 28 29 27 25 23 23 21 20 20 19 17 20 23 23 25 29 59 85 86
80 80 78 77 76 74 80 89 85 93 88 89 95 100 99 87 53 51 45 41 49 51 44 26 22 27 30 30 28 27 27 25 22 21 20 19 18 19 26 26 34 35 51 74 71
85 82 84 85 85 89 95 97 100 100 99 99 97 98 100 77 58 57 55 51 52 53 49 28 22 24 28 30 28 27 27 23 23 21 20 20 20 19 20 37 47 52 57 64 59
86 96 100 95 84 75 100 99 99 100 99 96 96 99 95 61 60 54 56 56 50 39 52 30 26 28 27 28 28 26 28 28 22 21 20 19 21 17 26 44 52 57 58 57 53
94 92 92 98 71 85 99 100 100 100 92 96 100 98 84 69 62 48 50 36 26 30 42 29 29 29 31 32 30 34 25 31 24 21 20 22 21 18 32 47 47 56 58 53 50
94 82 96 94 80 98 100 99 82 74 72 74 76 79 70 63 56 47 40 30 27 27 32 31 31 34 36 31 30 28 32 32 25 17 24 22 24 22 43 44 43 50 56 57 49
93 100 92 100 98 99 86 78 84 85 84 68 64 64 53 51 42 35 28 26 28 29 32 35 35 35 29 31 24 26 27 25 25 23 25 24 22 20 22 47 43 51 56 58 52
100 100 97 94 93 87 86 84 84 81 82 68 65 67 59 55 50 42 39 30 30 32 35 39 40 31 28 31 33 33 32 30 27 25 26 22 23 18 20 30 36 42 52 56 64
93 97 99 100 100 96 93 91 88 81 74 67 60 64 63 61 61 56 47 30 30 34 37 38 34 32 33 33 36 36 34 30 28 24 22 25 20 14 19 22 32 36 37 36 50
80 87 89 94 100 100 99 94 82 73 80 59 59 61 68 63 59 54 55 43 32 37 36 36 29 32 40 36 33 37 31 30 29 30 31 22 27 16 13 16 26 35 40 43 48
98 90 89 100 79 86 80 81 80 62 91 44 56 53 57 61 49 45 56 50 50 39 35 43 36 36 35 35 32 35 31 34 33 34 35 29 30 21 16 18 24 32 38 46 52
94 100 99 96 76 78 81 85 74 74 65 49 51 54 61 56 49 54 51 44 41 41 35 39 33 32 32 32 32 32 33 34 41 39 46 32 29 26 20 17 17 26 39 48 61
97 99 99 94 81 77 87 80 89 82 38 47 44 55 54 54 50 41 57 54 51 62 60 46 44 34 31 35 34 33 38 49 56 56 50 29 31 26 21 20 18 22 33 47 61
94 100 98 100 86 79 87 81 94 53 60 44 39 35 46 42 42 42 50 60 54 46 52 57 53 45 38 37 40 39 37 52 86 75 54 37 39 27 26 36 29 21 24 46 63
77 99 100 100 94 84 84 99 73 64 54 51 42 42 48 42 43 43 44 49 53 49 54 56 55 35 35 34 35 46 51 38 70 89 96 66 46 30 33 33 41 49 55 55 67
96 100 100 100 100 90 96 87 76 66 61 52 50 54 57 58 50 50 53 81 83 67 57 53 55 40 34 30 34 37 36 60 94 94 87 74 63 54 45 42 35 40 52 58 74
98 99 100 99 100 98 98 97 81 69 62 58 63 58 61 64 60 54 51 85 79 70 61 60 70 52 44 40 41 38 41 46 49 85 80 62 52 48 46 44 43 37 40 53 62
94 92 99 100 99 100 99 94 85 69 60 59 55 59 64 65 61 55 55 74 84 81 78 77 92 91 61 42 41 47 47 46 72 91 100 87 66 37 44 46 49 46 54 53 63
59 84 100 99 98 98 99 94 93 84 76 80 74 72 67 66 59 65 62 80 80 75 73 71 79 67 45 46 52 62 62 67 79 97 92 94 72 40 43 45 42 52 61 70 76
44 95 89 100 90 85 83 82 82 81 74 75 76 75 77 72 68 68 68 70 81 80 72 71 73 70 66 51 57 82 60 60 76 86 70 72 67 51 46 64 57 52 62 68 85
39 89 89 99 93 81 73 76 76 68 78 75 70 78 75 85 78 73 66 65 78 86 80 76 96 92 76 67 68 81 73 62 69 60 72 51 46 48 51 73 77 85 89 98 100
37 79 79 87 86 78 72 84 71 66 59 63 72 74 79 89 71 84 87 76 75 72 97 97 90 95 89 87 89 94 81 73 69 64 64 68 70 52 53 64 73 85 86 92 96
49 69 53 96 87 85 78 78 68 62 60 61 62 64 68 68 67 57 51 52 49 71 83 87 88 90 76 77 87 95 79 68 60 60 71 90 60 46 53 54 64 74 89 91 90
Wind_Speed
19 18 17 16 15 14 14 14 14 15 15 16 17 17 17 18 15 14 4 8 16 15 12 13 5 4 0 3 4 6 1 2 3 4 3 3 3 8 10 16 11 13 7 8 30
21 20 18 17 16 15 15 15 15 15 16 16 16 17 17 19 19 5 1 14 13 14 11 12 9 4 1 2 2 1 3 7 4 3 2 3 5 14 9 12 6 11 10 19 30
22 21 19 18 17 16 16 16 17 15 16 17 17 18 18 18 19 5 3 13 9 14 14 9 8 5 2 1 1 2 4 4 3 8 4 3 4 7 9 11 16 24 25 31 33
23 22 21 20 18 17 18 18 18 17 16 17 16 18 18 16 5 4 13 13 8 12 12 10 5 3 2 2 2 3 6 5 5 1 3 3 3 5 14 7 16 21 26 35 36
24 23 22 20 20 20 20 20 21 19 19 18 19 17 18 10 18 19 17 11 9 14 13 8 4 2 1 2 5 4 5 5 11 14 10 6 8 5 12 9 12 20 31 34 35
25 23 23 22 22 22 23 22 23 22 20 20 20 20 17 10 12 8 9 11 16 20 11 5 1 3 4 3 2 2 8 12 10 9 7 5 4 8 10 12 16 26 33 35 34
26 25 24 24 20 22 23 23 24 26 24 21 23 21 20 28 21 26 24 26 23 18 14 5 3 3 2 4 2 3 6 9 8 6 4 6 5 9 9 19 21 28 33 36 35
26 27 26 25 19 23 24 28 25 27 25 24 22 19 14 23 24 26 23 23 20 19 18 8 5 3 3 5 4 3 1 5 3 8 6 7 20 13 15 23 24 26 32 37 36
27 27 28 22 22 24 27 28 26 24 23 21 15 12 13 14 13 4 7 9 7 6 13 8 4 4 3 2 3 1 7 6 6 6 3 11 15 11 18 23 24 27 31 35 35
23 19 25 19 22 24 21 15 10 12 10 7 12 5 13 10 6 6 8 8 5 7 9 9 5 3 2 5 7 5 5 4 7 2 6 15 16 7 15 22 28 30 30 32 37
18 20 22 24 26 19 14 9 5 5 12 10 5 6 2 6 6 5 5 5 8 7 6 6 5 9 19 16 8 2 4 10 6 7 5 11 18 16 15 17 18 23 28 32 38
17 18 17 16 18 17 14 7 5 1 8 16 22 29 28 16 7 12 9 7 7 6 6 3 12 17 5 10 12 11 14 17 13 14 10 19 26 20 13 15 31 32 31 35 29
11 13 13 15 18 16 14 10 8 8 5 11 21 21 24 25 21 27 15 10 6 7 12 15 6 6 11 9 9 12 16 11 13 8 10 13 30 24 15 25 25 32 37 41 43
20 19 17 16 14 14 12 12 8 1 3 5 4 4 8 10 6 17 31 20 6 14 6 11 10 9 6 8 14 12 11 16 14 6 8 3 16 16 7 17 17 29 34 41 43
18 18 16 16 6 11 8 11 11 8 3 3 3 2 3 8 4 3 12 15 20 10 6 5 3 8 14 13 11 8 7 10 9 8 6 11 8 19 6 11 16 20 33 38 43
21 21 20 16 9 10 15 17 12 4 8 1 4 4 3 5 2 3 4 3 5 10 6 6 2 3 4 3 11 2 2 1 3 3 8 10 12 28 13 16 11 20 26 30 29
23 23 19 16 11 13 21 16 4 4 3 2 2 3 4 3 4 5 5 6 4 6 9 10 18 9 5 8 2 5 2 3 4 5 9 9 12 22 10 10 8 12 20 28 30
19 22 18 16 13 17 24 3 4 1 2 3 1 4 3 2 1 2 3 3 3 1 2 1 3 5 5 13 8 9 9 5 5 4 4 3 11 10 3 6 9 11 17 19 29
20 20 18 20 20 24 17 3 5 4 1 3 2 1 3 4 3 3 2 4 5 4 3 1 3 1 1 6 7 3 8 14 6 8 3 5 12 20 8 5 8 9 5 17 24
23 21 16 21 25 26 4 8 2 1 2 1 2 2 2 6 4 4 3 6 5 6 3 3 6 5 3 2 6 6 0 1 3 4 6 7 8 13 10 12 14 11 11 13 16
22 12 13 18 21 12 5 5 3 2 1 3 2 3 3 2 2 3 4 4 4 6 8 3 2 3 5 1 6 6 6 6 7 4 6 12 8 3 8 7 11 14 17 16 19
17 3 12 14 5 3 3 6 3 3 2 3 3 2 2 2 1 1 1 2 2 2 3 4 1 4 7 13 12 12 11 5 3 3 4 6 11 14 12 11 14 20 18 14 19
10 6 13 13 4 3 2 4 3 2 3 3 3 3 4 1 2 2 2 4 4 3 3 1 1 5 12 4 3 5 3 2 3 4 8 9 8 14 21 22 34 24 19 16 15
7 3 2 2 4 4 5 3 4 2 2 5 5 2 2 4 3 4 1 3 3 4 1 1 5 7 11 15 4 6 7 5 3 4 7 10 15 24 23 17 18 21 22 19 16
4 2 4 4 3 4 3 4 6 6 3 4 1 6 5 4 4 7 6 4 4 5 3 3 6 5 11 16 11 11 12 16 16 19 12 22 17 22 22 12 14 15 10 10 13
4 5 5 3 6 7 4 3 7 2 4 2 4 4 4 5 4 4 5 3 4 1 0 2 3 5 8 13 15 13 19 22 19 23 19 22 23 16 22 15 18 13 10 12 14
6 9 4 3 3 5 4 4 7 6 4 1 1 1 1 1 1 6 12 12 14 10 7 5 3 3 9 5 7 10 24 19 17 17 13 11 15 12 11 12 15 18 9 13 14
Wind_Direction
239 243 248 253 258 268 280 288 293 302 308 314 321 326 327 325 331 339 30 10 346 346 354 358 356 336 247 169 155 146 126 219 242 186 281 197 166 157 167 145 169 184 177 200 175
240 243 247 253 259 268 276 285 286 293 299 311 317 321 323 323 326 298 10 347 354 3 354 2 11 3 351 132 171 149 181 204 210 211 268 279 204 161 160 158 169 176 181 172 176
241 242 245 249 256 263 271 276 284 291 299 308 314 317 320 325 328 201 304 341 350 3 3 359 360 8 0 335 206 182 219 201 249 238 279 287 184 194 169 193 193 188 175 171 176
239 242 244 247 252 259 266 274 280 289 296 304 308 312 319 322 298 222 307 318 315 344 348 358 344 15 42 307 358 293 265 243 279 272 291 236 219 200 181 193 215 207 187 176 183
239 241 244 247 250 257 264 272 278 284 290 293 298 305 316 300 269 284 284 281 293 317 329 351 5 15 268 296 314 215 284 288 278 293 281 238 230 249 216 223 200 193 183 183 185
243 246 250 251 256 262 266 271 280 285 288 292 299 309 310 284 284 279 262 267 284 297 302 323 298 306 279 243 205 292 288 286 293 283 282 234 210 171 225 196 180 187 190 190 191
245 249 250 255 260 266 268 274 274 279 287 292 298 296 284 269 284 275 270 273 275 276 267 244 249 232 305 284 290 280 298 297 249 258 255 219 218 222 214 188 183 187 190 192 195
245 251 252 251 249 264 262 264 269 274 283 285 282 275 261 289 281 271 267 266 269 262 246 225 234 212 216 293 321 290 192 278 309 217 234 197 254 223 202 182 189 192 192 195 200
244 250 252 235 254 255 256 253 257 268 278 273 271 256 269 272 272 257 228 233 255 252 208 196 188 190 166 201 297 332 261 234 291 226 249 213 259 237 193 191 195 196 196 199 202
240 234 237 228 264 255 248 248 248 254 249 251 242 265 252 240 250 240 248 228 206 168 158 183 170 155 163 182 239 217 227 225 248 294 236 246 248 242 205 203 202 201 201 203 207
209 213 228 238 243 212 191 176 198 234 229 219 217 216 317 224 206 207 212 198 166 187 172 184 178 200 218 206 216 201 251 263 250 260 279 261 266 255 240 210 218 212 212 211 214
172 181 176 176 180 176 178 181 191 258 299 262 256 257 258 253 276 237 219 195 179 217 130 147 231 222 204 201 217 231 254 263 274 267 273 280 272 258 240 219 215 215 215 218 212
226 222 219 216 208 209 217 224 247 310 278 276 254 248 253 242 235 245 230 208 192 200 201 234 241 225 207 207 204 220 224 244 254 303 279 282 278 262 231 229 219 221 222 225 218
214 223 219 216 229 229 234 227 236 48 311 268 240 272 209 219 257 249 233 220 199 236 204 252 243 218 201 221 211 245 208 234 247 261 270 214 290 262 259 226 218 219 215 219 219
198 202 193 187 202 185 179 162 143 134 353 134 166 189 196 195 325 35 207 214 228 210 188 241 190 206 231 243 191 263 188 211 223 226 283 237 265 272 237 235 225 223 218 218 214
211 202 186 180 174 173 159 149 137 73 229 123 121 168 168 228 289 99 107 151 225 211 230 263 333 177 207 241 205 154 207 167 76 184 254 226 209 279 273 239 238 229 223 222 213
202 187 187 182 182 164 155 143 85 190 11 71 60 197 232 183 220 160 159 184 179 165 224 252 252 230 205 247 151 192 185 221 214 194 251 170 196 246 304 299 274 258 228 220 208
194 191 191 189 176 165 157 81 191 173 243 352 334 269 198 155 188 142 120 152 248 77 108 195 307 165 198 229 238 207 204 234 245 212 297 215 244 251 314 317 333 256 254 216 207
183 197 197 198 191 171 159 187 209 190 266 349 275 93 20 17 42 24 81 15 22 221 218 303 251 33 337 231 196 209 213 238 257 259 246 258 277 285 281 290 357 339 254 216 209
175 181 184 202 182 174 159 211 213 292 349 333 120 14 81 1 48 34 33 1 10 17 238 10 298 304 324 7 206 242 210 92 113 253 235 242 267 256 305 296 298 293 268 243 221
169 167 168 185 170 169 187 170 186 235 211 69 108 92 82 72 50 19 27 19 358 346 45 43 351 297 324 317 339 292 255 235 249 230 255 269 261 235 298 313 305 298 283 253 229
155 115 180 153 123 169 166 147 157 28 45 39 85 89 113 112 29 225 175 79 259 312 41 25 130 291 279 282 293 258 299 327 287 263 263 278 262 279 314 334 338 320 312 282 241
123 104 158 180 160 150 117 114 120 64 41 57 60 43 23 83 294 227 222 152 83 66 105 86 77 317 306 154 50 60 9 146 212 244 246 265 286 320 310 318 307 298 301 289 241
132 105 136 155 116 146 133 120 126 168 166 172 186 137 272 279 236 272 317 23 119 137 195 290 218 217 253 269 261 268 259 258 206 252 283 266 283 288 287 313 305 289 274 253 228
128 141 152 174 189 111 97 107 151 165 217 190 45 192 188 223 221 245 267 280 215 287 193 218 239 230 245 258 260 254 256 260 246 257 253 271 271 264 284 297 303 322 288 246 228
112 133 124 102 126 129 133 181 180 149 159 207 187 136 184 222 262 294 356 310 284 323 249 319 258 206 264 253 252 246 250 256 261 259 262 261 266 263 278 284 299 307 287 251 240
115 125 130 2 106 141 178 169 184 160 226 232 110 142 221 256 52 296 285 260 251 261 267 274 267 245 263 230 234 246 245 245 245 244 227 228 256 277 275 290 290 298 292 270 240